User: anonymous   Login
Location: Newark
(45.0667°N, 7.8333°E)
Time: 02:30:49
(UTC+00:00)
Language:

CAS-4B - Orbit

View from above orbital plane
View from above orbital plane
View from above satellite
View from above satellite

Ground track
Ground track

The orbit data is extracted from the following two-line orbital elements,

1 42759U 17034B   19295.77807245  .00000183  00000-0  24685-4 0  9999
2 42759  43.0185 258.2455 0012622 323.6108 107.5646 15.09659700129897
Epoch (UTC): 22 October 2019 18:40:25
Eccentricity: 0.0012622
inclination: 43.0185°
perigee height: 528 km
apogee height: 546 km
right ascension of ascending node: 258.2455°
argument of perigee: 323.6108°
revolutions per day: 15.09659700
mean anomaly at epoch: 107.5646°
orbit number at epoch: 12989

The dashed part of the orbit path shows where the satellite is in the earth's shadow,  

DLR